Temperature
14 14 14 14 14 15 15 15 15 15 15 15 15 14 14 14 14 15 14 15 15 14 14 15 15 15 15 15 15 15 15 15 15 15 14 14 14 14 14 14 14 14 14
14 14 14 14 14 14 15 15 15 15 15 14 14 14 14 14 14 14 14 14 14 14 14 14 14 14 14 14 15 15 15 15 14 14 14 14 14 14 14 14 14 14 14
14 14 14 14 14 14 15 15 15 15 14 14 14 14 14 14 14 14 14 14 14 14 14 14 14 14 14 14 14 14 14 14 14 14 14 14 14 14 14 14 14 14 14
14 14 14 14 14 14 14 14 14 14 14 14 14 14 14 14 14 14 14 14 14 14 14 14 14 14 14 14 14 14 14 14 14 14 14 14 14 13 14 14 14 13 14
13 13 14 14 14 14 14 14 14 14 14 14 14 14 14 14 14 14 14 14 14 14 14 14 14 13 13 14 14 14 14 13 13 14 14 13 13 13 13 13 13 13 13
13 13 13 14 14 14 14 14 14 14 14 14 14 14 14 14 14 14 14 14 14 14 13 13 13 13 13 13 13 13 13 13 13 13 13 13 13 13 13 13 13 13 13
13 13 13 13 13 13 13 13 13 13 13 13 13 13 13 13 13 13 13 13 13 13 13 13 13 13 13 13 13 13 13 13 13 13 13 13 13 13 13 13 13 13 13
13 13 13 13 13 13 13 13 13 13 13 13 13 13 13 13 13 13 13 13 13 13 13 13 12 12 12 13 13 13 13 13 13 13 12 12 12 12 12 12 12 12 12
13 12 12 12 12 13 13 13 13 13 13 13 13 13 12 12 12 12 12 13 13 13 12 12 12 12 12 12 12 12 12 12 12 12 12 12 12 12 12 12 12 12 12
12 12 12 12 12 12 12 12 12 12 12 12 12 12 12 12 12 12 12 12 12 12 12 12 12 12 12 12 12 12 12 12 12 12 12 11 11 11 12 11 11 11 11
12 12 12 12 12 12 12 12 12 12 12 12 12 12 12 12 12 12 12 12 12 12 12 12 12 12 12 12 12 12 12 12 12 11 11 11 11 11 11 11 11 11 11
11 11 11 11 11 11 11 11 11 11 11 12 11 11 11 11 11 12 12 12 12 12 12 12 11 11 11 11 11 11 11 11 11 11 11 11 11 11 11 11 11 11 11
11 11 11 11 11 11 11 11 11 11 11 11 11 11 11 11 11 11 11 11 11 11 11 11 11 11 11 11 11 11 11 11 11 11 10 10 10 10 10 10 10 10 10
11 11 11 11 11 11 11 11 11 11 11 11 11 11 11 11 11 11 11 11 11 11 11 11 11 11 10 10 10 10 10 10 10 10 10 10 10 10 10 10 10 10 10
10 10 10 10 10 11 11 11 11 10 10 10 10 10 10 11 11 11 10 10 11 11 11 10 10 10 10 10 10 10 10 10 10 10 10 10 9 9 9 9 9 9 9
10 10 10 10 10 10 10 10 10 10 10 10 10 10 10 10 10 10 10 10 10 10 10 10 10 10 10 10 9 9 9 9 9 9 9 9 9 9 9 9 9 9 9
9 9 9 9 9 10 10 10 10 10 10 10 10 10 10 10 10 10 10 10 10 10 9 9 9 9 9 9 9 9 9 9 9 9 9 9 9 9 8 8 8 8 8
9 9 9 9 9 9 9 9 9 9 9 9 9 9 9 9 10 10 9 9 9 9 9 9 9 9 9 9 8 8 8 8 8 8 8 8 8 8 8 8 8 8 8
8 8 8 8 8 8 8 9 8 9 9 9 9 9 9 9 9 9 9 9 9 9 8 8 8 8 8 8 8 8 8 8 8 8 8 8 8 8 8 8 8 8 7
8 8 8 8 7 8 8 8 8 8 8 8 8 8 9 9 9 9 9 8 8 8 8 8 8 8 7 7 7 7 7 7 7 7 7 7 7 7 7 7 7 7 7
7 7 7 7 7 7 7 7 7 7 8 8 8 8 8 8 8 8 8 8 8 8 8 7 7 7 7 7 7 6 6 6 7 7 7 7 7 7 7 7 7 7 7
7 6 6 6 6 6 7 6 7 7 7 7 7 7 7 7 7 8 8 8 7 7 7 7 7 7 6 6 6 6 5 6 6 6 6 6 7 6 6 6 6 6 6
6 6 6 6 6 6 6 6 6 6 6 6 6 7 7 7 7 7 7 7 7 7 7 6 6 6 6 6 6 6 5 5 5 5 6 6 6 6 6 6 6 6 6
6 6 6 6 6 6 5 5 6 6 6 6 6 6 6 6 6 6 6 6 6 6 6 6 6 6 6 6 5 5 6 5 5 5 5 5 5 6 6 5 5 5 5
5 5 5 5 5 5 5 5 5 5 5 5 5 5 5 6 6 6 6 6 6 6 6 5 5 5 5 5 5 5 5 5 5 5 5 5 5 5 5 5 5 5 5
5 5 5 5 5 5 4 4 4 5 5 5 5 5 5 5 5 5 5 5 5 5 5 5 5 5 5 5 5 5 5 5 5 5 5 5 5 5 5 5 5 4 4
Wind_Speed
3 6 8 9 10 11 12 13 13 13 14 14 14 15 15 15 15 15 15 15 16 17 18 18 19 19 19 20 20 20 21 21 21 21 20 20 20 20 20 20 19 19 22
6 9 10 10 10 11 12 13 13 13 13 13 14 14 14 14 15 15 15 15 16 17 17 18 18 19 19 19 20 20 20 20 20 20 20 19 20 20 20 20 19 19 21
8 9 11 11 11 11 12 13 13 13 13 13 14 14 14 14 14 15 15 15 16 16 17 17 18 18 19 19 19 19 19 19 19 19 18 17 18 19 20 20 20 20 21
10 10 10 11 12 12 13 13 13 13 13 13 14 14 14 14 14 15 15 15 16 16 16 17 17 18 18 18 18 18 19 18 18 17 16 15 15 18 19 19 19 19 20
8 10 11 12 13 13 13 13 13 13 13 13 13 14 14 14 14 15 15 15 16 16 16 16 17 17 17 18 18 18 18 18 18 16 15 15 15 17 18 18 19 19 19
7 9 11 13 13 13 13 13 13 13 13 13 13 13 14 14 15 15 15 15 15 16 16 16 16 17 17 17 18 18 18 17 16 15 15 14 15 17 17 17 18 18 18
6 8 11 13 13 13 13 13 12 12 12 13 13 14 14 14 15 15 14 15 15 15 15 16 16 16 17 17 17 18 17 17 15 14 13 14 15 16 17 17 17 17 17
7 8 9 12 13 13 13 12 13 12 12 12 13 14 14 14 14 14 14 14 15 15 15 15 16 16 16 17 17 17 16 15 14 13 13 13 15 15 16 16 16 17 17
8 7 8 8 11 12 12 12 13 12 12 12 13 13 14 14 14 14 14 14 14 14 14 15 15 15 15 15 16 16 16 16 14 12 12 12 14 15 15 15 15 16 16
7 6 6 7 8 10 11 12 13 13 13 13 13 14 14 14 14 13 13 13 13 14 14 14 15 15 15 15 15 16 16 14 14 12 11 12 14 14 14 14 14 15 15
5 5 5 6 7 8 10 11 12 12 12 13 13 13 13 12 12 12 12 13 13 13 14 13 14 14 14 13 14 15 13 11 12 11 10 12 13 13 14 14 14 14 14
4 3 4 4 5 7 9 10 10 10 11 11 11 12 12 12 11 11 12 12 12 12 12 12 13 13 12 11 12 12 11 11 10 9 10 11 12 13 13 13 13 13 13
5 4 3 4 5 6 6 8 8 8 9 10 11 11 12 11 11 10 9 9 10 10 10 10 10 10 10 10 10 10 10 10 8 8 9 11 11 11 12 12 12 12 11
4 3 3 3 4 5 6 7 7 7 7 8 9 10 10 9 8 8 7 7 8 8 9 9 9 10 10 11 10 10 9 8 8 7 8 10 10 10 11 11 11 11 10
3 3 3 4 4 4 5 5 6 6 7 8 9 9 10 8 7 7 6 7 7 8 8 8 8 8 8 9 9 9 9 8 8 7 7 9 10 10 10 10 9 9 10
3 3 2 4 4 4 4 4 5 7 8 8 8 8 9 9 9 7 6 6 6 7 8 8 8 7 7 7 7 8 8 8 8 8 7 8 8 9 9 9 8 8 8
3 3 2 3 3 4 4 4 5 7 8 8 8 8 9 9 10 9 7 6 6 8 8 8 8 8 6 6 6 6 7 7 7 7 7 7 7 7 8 8 8 7 8
3 3 2 2 2 3 4 4 4 6 7 7 8 9 8 9 10 10 7 6 7 8 7 6 5 5 4 4 3 4 5 6 6 7 7 7 7 7 7 7 7 6 7
4 3 3 3 3 3 3 4 4 5 6 7 7 8 8 9 9 9 8 7 9 7 6 5 4 4 4 4 3 3 4 4 4 6 6 6 7 7 6 5 6 5 5
4 4 3 3 3 3 3 3 2 2 3 5 6 7 8 8 9 9 8 8 8 6 4 4 4 3 4 4 4 3 3 3 3 4 4 5 5 5 5 5 5 4 4
3 4 4 4 3 3 3 3 3 2 2 3 4 7 8 8 8 8 7 7 7 5 5 5 4 5 3 3 3 2 2 2 2 2 3 4 4 4 4 4 3 3 3
5 5 5 5 4 4 3 3 2 2 2 2 3 5 6 7 8 8 7 7 6 5 5 5 5 3 3 3 3 3 1 1 1 1 1 2 2 3 3 3 2 3 2
5 6 5 5 5 4 3 2 2 2 1 1 1 2 4 7 7 7 7 7 7 6 6 6 6 5 5 2 2 3 3 3 1 1 1 0 1 2 2 2 2 2 3
7 6 6 6 5 5 5 5 5 4 3 2 2 2 3 6 7 7 7 7 7 6 6 6 5 4 6 5 2 1 2 3 3 1 2 1 1 1 2 2 3 3 3
5 5 5 5 5 5 5 6 6 4 3 2 1 2 2 3 5 6 7 6 6 6 7 6 5 4 4 5 4 3 2 1 2 3 3 2 2 2 2 3 4 4 4
3 4 4 5 5 5 6 6 6 5 4 3 3 3 3 2 3 4 5 5 5 5 7 7 6 6 5 5 4 3 3 3 3 3 4 3 3 3 3 3 5 5 5
Wind_Direction
163 159 144 127 120 117 115 110 106 103 102 101 98 97 95 92 91 90 89 89 89 90 90 91 92 91 90 89 89 87 86 84 83 81 80 82 84 83 83 79 78 78 80
154 153 143 133 127 120 118 114 108 105 104 103 103 100 98 95 92 90 90 90 90 91 92 92 94 94 92 90 90 88 87 85 83 80 78 78 82 83 83 81 81 82 81
136 143 142 135 130 124 116 114 112 107 105 104 105 103 100 97 95 92 91 90 90 92 93 94 96 97 94 92 91 91 90 87 84 79 76 76 79 83 84 83 82 82 81
135 137 138 133 130 124 120 113 112 111 108 105 105 105 103 101 98 95 93 91 91 91 91 93 96 98 97 96 93 92 91 88 83 79 76 76 80 83 84 84 83 83 82
125 130 137 131 129 127 123 118 111 113 110 108 106 107 105 102 100 97 94 93 90 90 91 92 95 98 99 98 96 94 91 88 82 78 76 77 81 85 84 83 84 84 83
118 126 136 134 128 127 126 123 119 113 114 112 109 108 107 105 102 99 97 95 93 92 91 93 97 98 99 99 99 96 93 89 81 78 77 80 82 86 86 84 84 84 84
118 121 134 135 132 128 126 125 121 114 113 116 113 110 107 106 105 102 99 99 97 95 93 94 97 98 98 98 99 98 93 89 84 80 80 84 88 89 88 87 86 85 85
114 115 125 137 135 132 129 125 122 119 113 114 116 113 110 109 108 105 102 101 100 99 97 95 95 97 98 96 96 96 92 90 87 83 83 88 92 91 90 89 87 85 85
104 102 107 118 131 134 132 128 124 120 116 111 114 114 112 109 107 107 105 104 103 103 100 98 97 96 97 97 95 92 90 89 85 84 88 91 93 94 93 91 89 88 86
98 96 97 102 117 126 131 128 123 120 115 111 109 110 109 106 105 105 106 106 105 104 102 99 99 95 94 95 93 90 89 87 83 81 86 94 96 97 97 95 92 90 89
98 98 98 98 106 119 124 125 121 118 115 110 105 106 102 99 99 99 102 106 108 107 102 99 99 94 90 92 91 87 85 83 83 81 88 99 98 97 98 98 96 92 91
137 118 98 103 109 118 124 122 118 115 111 106 105 104 104 103 102 100 97 102 106 106 104 100 97 92 84 86 87 84 82 82 80 81 92 101 100 98 100 100 98 95 92
155 137 120 106 112 118 120 122 118 117 114 109 110 109 111 107 103 98 92 92 96 98 96 97 91 88 87 85 85 84 82 83 78 80 93 103 105 104 101 100 100 99 96
150 150 141 119 113 122 131 132 130 127 124 121 122 120 117 114 109 104 99 97 96 100 97 93 93 94 92 89 89 86 81 80 77 79 92 104 108 106 104 101 99 101 101
148 154 157 139 134 128 132 138 134 135 136 135 132 131 129 128 127 118 112 108 106 108 106 101 100 99 94 91 89 91 86 81 78 78 86 100 104 105 106 104 102 105 103
154 153 162 150 147 139 134 140 141 145 145 142 140 141 139 139 138 131 121 117 114 115 115 112 111 105 97 94 88 89 92 88 83 78 80 90 100 106 107 107 106 110 112
169 153 147 143 130 143 145 144 144 149 148 146 148 147 145 144 144 138 132 128 126 122 118 113 108 103 98 94 88 83 90 92 90 85 83 83 88 98 105 105 110 112 115
153 151 149 131 122 134 141 141 145 152 150 150 151 149 147 147 148 140 137 137 132 125 120 120 118 110 104 97 90 80 82 88 89 91 91 90 88 87 92 98 107 112 114
159 159 162 147 146 143 141 141 142 150 149 151 150 147 147 144 148 144 140 139 135 127 122 127 122 125 123 110 100 77 68 80 86 90 90 91 92 90 88 86 90 105 112
164 163 168 156 149 137 127 126 128 126 142 146 149 148 147 148 146 146 142 142 138 135 129 129 130 117 126 123 103 74 44 55 78 87 95 96 92 95 93 87 82 87 103
162 168 174 165 158 149 154 163 165 178 176 162 150 151 150 150 149 145 149 148 148 152 152 143 135 131 124 120 105 76 24 24 51 69 93 101 97 99 98 94 91 93 97
182 184 180 177 170 166 171 178 176 171 181 178 155 148 155 155 155 155 157 160 159 154 151 150 141 139 149 149 136 128 85 349 339 3 60 110 111 113 111 115 118 121 116
193 194 190 185 176 168 149 134 123 107 83 127 178 180 170 163 162 164 161 163 163 162 169 171 164 154 165 184 166 149 159 199 225 281 277 178 137 126 142 149 147 147 150
205 196 190 185 179 170 158 158 157 171 190 214 205 205 188 171 169 166 166 170 171 169 176 182 178 169 165 176 191 197 175 155 168 212 256 249 237 208 193 184 177 178 168
205 194 192 185 184 176 172 170 170 180 192 181 185 180 194 183 177 173 172 174 179 180 182 183 180 178 179 180 180 175 162 163 157 177 210 226 246 237 220 204 194 194 193
201 189 186 187 190 184 180 178 179 181 176 175 196 191 201 202 193 182 184 182 183 186 188 188 186 186 190 188 189 185 178 178 186 189 197 208 225 240 242 218 206 208 209
Height
1531 1533 1535 1536 1537 1538 1539 1539 1540 1540 1541 1541 1541 1541 1542 1542 1542 1542 1542 1542 1542 1542 1542 1542 1542 1543 1544 1544 1545 1545 1545 1546 1546 1547 1547 1548 1548 1548 1549 1549 1549 1549 1550
1530 1533 1535 1536 1537 1538 1539 1540 1540 1541 1542 1542 1542 1543 1543 1543 1543 1543 1543 1543 1543 1544 1544 1544 1544 1545 1545 1546 1546 1547 1548 1548 1549 1549 1550 1550 1551 1551 1551 1552 1552 1552 1552
1530 1532 1535 1536 1537 1538 1539 1540 1541 1542 1542 1543 1543 1544 1544 1544 1545 1545 1545 1545 1545 1545 1545 1545 1546 1546 1547 1548 1548 1549 1550 1550 1551 1551 1552 1552 1553 1553 1554 1554 1554 1554 1554
1530 1532 1534 1536 1537 1538 1539 1540 1541 1542 1543 1544 1544 1544 1545 1545 1546 1546 1546 1546 1546 1546 1547 1547 1547 1548 1548 1549 1550 1551 1552 1552 1553 1553 1553 1554 1555 1556 1556 1556 1556 1556 1557
1530 1532 1534 1535 1537 1538 1539 1540 1541 1543 1543 1544 1545 1545 1545 1546 1546 1546 1547 1547 1547 1548 1548 1548 1549 1549 1550 1550 1551 1552 1553 1554 1554 1555 1555 1556 1557 1557 1558 1558 1558 1558 1559
1529 1532 1533 1535 1536 1538 1539 1540 1541 1542 1543 1544 1545 1546 1546 1546 1547 1547 1548 1548 1548 1549 1549 1549 1550 1551 1551 1552 1553 1553 1554 1555 1556 1557 1557 1558 1558 1559 1559 1560 1560 1560 1560
1529 1531 1533 1535 1536 1537 1539 1540 1541 1542 1543 1544 1545 1546 1546 1547 1547 1548 1548 1549 1549 1550 1550 1551 1551 1552 1553 1553 1554 1555 1556 1557 1557 1558 1559 1559 1560 1561 1561 1561 1562 1562 1562
1528 1530 1533 1534 1536 1537 1538 1539 1540 1542 1543 1544 1545 1546 1546 1547 1548 1548 1549 1549 1550 1550 1551 1552 1552 1553 1554 1554 1555 1556 1557 1558 1558 1559 1560 1561 1561 1562 1562 1563 1563 1563 1563
1528 1530 1532 1534 1535 1536 1538 1539 1540 1541 1542 1543 1544 1545 1546 1547 1548 1549 1549 1550 1550 1551 1552 1552 1553 1554 1555 1556 1556 1557 1558 1559 1560 1560 1561 1562 1563 1563 1563 1564 1564 1564 1565
1527 1529 1531 1532 1534 1535 1537 1538 1539 1541 1542 1543 1543 1545 1546 1547 1548 1549 1549 1550 1551 1551 1552 1553 1554 1554 1555 1556 1557 1558 1559 1560 1560 1561 1562 1563 1564 1564 1565 1565 1565 1566 1566
1526 1528 1530 1531 1533 1534 1536 1537 1538 1540 1541 1542 1543 1544 1545 1546 1547 1548 1549 1550 1551 1551 1552 1553 1554 1555 1555 1557 1558 1559 1559 1560 1561 1562 1563 1564 1565 1565 1565 1566 1566 1566 1567
1524 1526 1528 1530 1531 1533 1534 1536 1537 1538 1540 1541 1542 1543 1544 1546 1547 1548 1549 1550 1550 1551 1552 1553 1554 1555 1556 1557 1558 1559 1560 1561 1562 1562 1563 1564 1565 1566 1566 1566 1567 1567 1567
1522 1524 1526 1528 1530 1531 1532 1534 1535 1537 1538 1540 1541 1542 1543 1544 1546 1547 1548 1549 1550 1551 1552 1553 1554 1555 1556 1557 1558 1559 1560 1561 1562 1562 1563 1564 1565 1566 1566 1567 1567 1567 1568
1521 1522 1524 1526 1527 1529 1530 1532 1533 1535 1536 1538 1540 1541 1542 1543 1544 1546 1547 1548 1549 1550 1551 1552 1553 1555 1556 1557 1558 1559 1559 1560 1561 1562 1563 1564 1565 1566 1566 1567 1567 1568 1568
1519 1520 1522 1524 1525 1526 1528 1530 1531 1533 1534 1536 1538 1539 1540 1541 1542 1544 1545 1547 1548 1549 1550 1551 1553 1554 1555 1556 1557 1558 1559 1560 1561 1562 1562 1564 1564 1565 1566 1566 1567 1567 1568
1516 1517 1519 1521 1523 1524 1525 1527 1528 1530 1532 1534 1535 1537 1538 1539 1540 1542 1543 1545 1546 1548 1549 1550 1551 1552 1554 1555 1556 1557 1558 1559 1560 1561 1562 1563 1564 1565 1565 1566 1566 1567 1567
1514 1515 1516 1518 1520 1521 1523 1524 1526 1528 1530 1531 1533 1534 1536 1537 1538 1539 1541 1543 1544 1546 1547 1548 1550 1551 1552 1554 1555 1556 1557 1558 1559 1560 1561 1562 1563 1564 1565 1565 1566 1566 1566
1511 1513 1514 1515 1517 1518 1520 1521 1523 1525 1527 1528 1530 1532 1533 1534 1536 1537 1539 1540 1542 1544 1545 1546 1547 1549 1550 1552 1553 1555 1556 1557 1558 1559 1561 1561 1562 1563 1564 1565 1565 1566 1566
1508 1510 1512 1513 1514 1515 1517 1519 1520 1522 1524 1525 1527 1528 1530 1531 1533 1534 1536 1537 1539 1541 1543 1544 1545 1547 1548 1550 1551 1553 1554 1556 1557 1558 1559 1560 1561 1562 1563 1563 1564 1565 1565
1506 1507 1509 1510 1511 1513 1514 1515 1517 1519 1520 1522 1523 1525 1526 1528 1530 1531 1532 1534 1536 1538 1540 1541 1543 1545 1546 1547 1549 1551 1553 1554 1555 1556 1557 1559 1560 1561 1561 1562 1563 1563 1564
1503 1504 1505 1506 1508 1509 1510 1511 1512 1514 1516 1517 1519 1521 1523 1524 1526 1527 1529 1531 1533 1535 1536 1538 1540 1542 1543 1545 1547 1548 1550 1552 1553 1554 1555 1557 1558 1559 1560 1560 1561 1561 1562
1499 1500 1501 1502 1504 1505 1506 1508 1509 1511 1512 1514 1516 1518 1519 1521 1523 1524 1525 1527 1529 1531 1533 1535 1536 1538 1540 1542 1544 1545 1548 1551 1550 1551 1553 1554 1555 1556 1557 1558 1559 1559 1560
1495 1496 1498 1499 1501 1502 1503 1505 1506 1508 1509 1511 1512 1513 1516 1517 1519 1521 1522 1524 1526 1528 1529 1531 1533 1534 1536 1538 1541 1543 1544 1545 1547 1548 1549 1551 1552 1553 1554 1555 1556 1557 1558
1491 1493 1494 1496 1497 1498 1500 1501 1502 1502 1504 1505 1507 1510 1512 1513 1515 1517 1518 1520 1522 1523 1525 1527 1529 1531 1533 1534 1537 1539 1541 1541 1543 1544 1546 1547 1548 1549 1551 1552 1553 1554 1555
1488 1489 1490 1492 1493 1495 1496 1497 1498 1500 1501 1502 1504 1506 1508 1509 1511 1512 1515 1517 1518 1520 1521 1523 1525 1527 1529 1531 1532 1534 1536 1537 1539 1540 1540 1542 1544 1546 1547 1548 1549 1550 1551
1485 1486 1487 1488 1489 1491 1492 1493 1494 1495 1497 1498 1500 1501 1503 1504 1506 1508 1511 1512 1514 1515 1517 1519 1520 1523 1525 1527 1529 1530 1531 1533 1534 1536 1536 1537 1539 1541 1543 1544 1545 1546 1547